Regional Weather Roundup
Issued by NWS State College, PA

Home | Current Version | Previous Version | Text Only | Print | Product List | Glossary On
Versions: 1 2 3 4 5 6 7 8 9 10 11 12 13 14 15 16 17 18 19 20 21 22 23 24 25 26 27 28 29 30 31 32 33 34 35 36 37 38 39 40 41 42 43 44 45 46 47 48 49 50
165
ASUS41 KCTP 252203
RWRCTP

REGIONAL WEATHER ROUNDUP
NATIONAL WEATHER SERVICE STATE COLLEGE PA
600 PM EDT THU MAY 25 2017

Note: "fair" indicates few or no clouds below 12,000 feet with no
significant weather and/or obstructions to visibility.

* = STATION THAT DOES NOT REPORT PRECIPITATION /E.G. RAIN...SNOW...ETC/
    THUNDER OR FOG.

PAZ002>004-007>009-013>016-020>023-029>032-252300-
WESTERN PENNSYLVANIA

CITY           SKY/WX    TMP DP  RH WIND       PRES   REMARKS
ERIE           PTSUNNY   60  56  86 NW5       29.47R
MEADVILLE      SUNNY     64  55  72 W8        29.46F
FRANKLIN*      MOSUNNY   64  52  63 W7        29.47R
NEW CASTLE     MOCLDY    62  59  90 SW3       29.49R
BEAVER COUNTY  PTSUNNY   63  55  77 SW9       29.49
BUTLER*        PTSUNNY   59  55  88 SW5       29.49R
PITTSBURGH INT CLOUDY    63  56  78 W12       29.48R
PITTSBURGH     PTSUNNY   63  51  65 SW14G21   29.48R
INDIANA*       MOSUNNY   68  55  64 W6        29.50R
LATROBE        PTSUNNY   66  54  63 W12G21    29.48R
WASHINGTON CO* CLOUDY    61  54  77 SW10G16   29.53R
$$

PAZ004>006-010>012-017>019-024>028-033>037-041-042-045-046-049>053-252300-
CENTRAL PENNSYLVANIA

CITY           SKY/WX    TMP DP  RH WIND       PRES   REMARKS
BRADFORD       PTSUNNY   60  55  83 NW5       29.49S
DUBOIS         PTSUNNY   63  52  67 W5        29.47S
CLEARFIELD     CLOUDY    62  58  86 S3        29.49R
JOHNSTOWN      PTSUNNY   62  52  69 SW7       29.49S
ALTOONA        LGT RAIN  61  58  90 CALM      29.50R
STATE COLLEGE  CLOUDY    64  57  77 CALM      29.48S
WILLIAMSPORT   CLOUDY    64  58  80 CALM      29.48R
SELINSGROVE    CLOUDY    64  60  87 SE5       29.50R
FT INDIANTOWN  CLOUDY    62  62 100 CALM      29.51R
CAPITAL CITY   CLOUDY    66  58  75 N5        29.49R
HARRISBURG     CLOUDY    65  60  84 NE3       29.48R
YORK           CLOUDY    65  60  84 N7        29.48S
$$

PAZ038>040-043-044-047-048-054-055-060>062-067>071-252300-
EASTERN PENNSYLVANIA

CITY           SKY/WX    TMP DP  RH WIND       PRES   REMARKS
SCRANTON       CLOUDY    63  57  81 VRB5G17   29.51R
MOUNT POCONO   LGT RAIN  54  54 100 SE7       29.56R VSB 1/4
ALLENTOWN      LGT RAIN  62  58  86 E10       29.52R
QUAKERTOWN*    CLOUDY    61  59  94 E7        29.52R
READING        PTSUNNY   64  62  93 E7        29.48S
LANCASTER      PTSUNNY   67  63  87 N6        29.49R
COATESVILLE    PTCLDY    64  63  94 N6        29.48F
POTTSTOWN      CLOUDY    62  59  90 NE9       29.50S
BLUE BELL      CLOUDY    61  59  94 NE6       29.51R
DOYLESTOWN     CLOUDY    60  59  96 NE7       29.50S
WILLOW GROVE   NOT AVBL
NORTH PHILA    CLOUDY    64  61  90 NE12      29.49S
PHILADELPHIA   TSTM      63  61  93 N10       29.48R FOG
$$




USA.gov is the U.S. government's official web portal to all federal, state and local government web resources and services.